Regional Weather Roundup
Issued by NWS

Home | Current Version | Previous Version | Graphics & Text | Print | Product List | Glossary On
Versions: 1 2 3 4 5 6 7 8 9 10 11 12 13 14 15 16 17 18 19 20 21 22 23 24 25 26 27 28 29 30 31 32 33 34 35 36 37 38 39 40 41 42 43 44 45 46 47 48 49 50
600
ASUS43 KLMK 261910
RWRKY
KENTUCKY REGIONAL WEATHER ROUNDUP
NATIONAL WEATHER SERVICE LOUISVILLE KY
300 PM EDT TUE JUL 26 2016

NOTE "FAIR" INDICATES FEW OR NO CLOUDS BELOW 12,000 FEET
WITH NO SIGNIFICANT WEATHER AND/OR OBSTRUCTIONS TO VISIBILITY.

KYZ001>023-026-027-061>063-070>075-262000-
WESTERN AND SOUTH CENTRAL KENTUCKY

CITY           SKY/WX    TMP DP  RH WIND       PRES   REMARKS
PADUCAH        MOSUNNY   92  75  57 S5        29.97F HX 103
HENDERSON      PTSUNNY   90  75  62 CALM      29.97F HX 100
OWENSBORO      PTSUNNY   90  77  65 W7        29.99F HX 103
HOPKINSVILLE   MOSUNNY   91  73  55 SW5       29.99F HX  99
BOWLING GREEN  MOSUNNY   93  72  50 VRB5      30.00F HX 101
GLASGOW        MOSUNNY   93  72  50 W8        30.00F HX 101
$$

KYZ024-025-028>034-038-045-046-053-262000-
NORTH CENTRAL KENTUCKY

CITY           SKY/WX    TMP DP  RH WIND       PRES   REMARKS
LOUISVILLE/SDF PTSUNNY   92  72  51 SW8       29.98F HX  99
LOUISVILLE/LOU SUNNY     91  71  51 SW8       29.99F HX  97
FORT KNOX      MOSUNNY   88  75  63 SW6       30.00F HX  98
$$

KYZ035>037-039>044-047>052-055>060-089>105-262000-
NORTHEAST KENTUCKY

CITY           SKY/WX    TMP DP  RH WIND       PRES   REMARKS
LEXINGTON      MOSUNNY   91  72  53 W12       30.01F HX  98
COVINGTON      CLOUDY    78  74  87 NE8       30.03F
FRANKFORT      PTSUNNY   89  72  56 W7        29.99F HX  96
$$

KYZ054-064>069-076>088-106>120-262000-
SOUTHEAST KENTUCKY

CITY           SKY/WX    TMP DP  RH WIND       PRES   REMARKS
JACKSON        MOSUNNY   88  73  61 CALM      30.04F HX  95
LONDON         MOSUNNY   91  69  48 S7        30.03F HX  96
SOMERSET       SUNNY     90  70  51 CALM      30.03F HX  95
MIDDLESBORO    CLOUDY    90  74  59 CALM      30.05F HX  98
MONTICELLO     PTCLDY   N/A N/A N/A NW8       30.04F
$$





USA.gov is the U.S. government's official web portal to all federal, state and local government web resources and services.